When you browse on this site, cookies collect data to enhance your experience and personalize the content and advertising you see.
Visit our Privacy Policy to learn more. By continuing to use the site, you agree to this use of cookies and data.
  • în România
  • Lista ţărilor
  • Pe 7 zile
  • Temperatura apei
  • Hartă satelitară
  • Meteo pe hartă
  • Widget-uri
  • user-avatar
    Intrare

    Meteo pe oră la Chachapoyas

    Astăzi, 20 Mai, Luni

    Timp Temperatura Precipitaţii Vânt Presiune Umiditate
    00:00 +10°C° 0 mm 1 m/s 574 mmHg 87%
    01:00 +10°C° 0 mm 1 m/s 574 mmHg 87%
    02:00 +10°C° 0 mm 1 m/s 573 mmHg 87%
    03:00 +10°C° 0 mm 1 m/s 573 mmHg 87%
    04:00 +10°C° 0 mm 1 m/s 573 mmHg 87%
    05:00 +10°C° 0 mm 1 m/s 573 mmHg 84%
    06:00 +11°C° 0 mm 1 m/s 574 mmHg 82%
    07:00 +11°C° 0 mm 1 m/s 574 mmHg 79%
    08:00 +14°C° 0 mm 1 m/s 576 mmHg 67%
    09:00 +19°C° 0 mm 1 m/s 577 mmHg 54%
    10:00 +22°C° 0 mm 1 m/s 579 mmHg 42%
    11:00 +23°C° 0 mm 2 m/s 579 mmHg 41%
    12:00 +23°C° 0 mm 2 m/s 578 mmHg 41%
    13:00 +24°C° 0 mm 2 m/s 578 mmHg 40%
    14:00 +23°C° 0 mm 2 m/s 577 mmHg 44%
    15:00 +21°C° 0 mm 2 m/s 576 mmHg 49%
    16:00 +20°C° 0 mm 2 m/s 575 mmHg 53%
    17:00 +18°C° 0.1 mm 2 m/s 575 mmHg 65%
    18:00 +16°C° 0.1 mm 1 m/s 574 mmHg 76%
    19:00 +13°C° 0.1 mm 1 m/s 573 mmHg 88%
    20:00 +13°C° 0.2 mm 1 m/s 574 mmHg 90%
    21:00 +13°C° 0.2 mm 1 m/s 574 mmHg 91%
    22:00 +12°C° 0.2 mm 1 m/s 574 mmHg 93%
    23:00 +11°C° 0.1 mm 0 m/s 574 mmHg 94%

    Mâine, 21 Mai, Marţi

    Timp Temperatura Precipitaţii Vânt Presiune Umiditate
    00:00 +11°C° 0.1 mm 0 m/s 574 mmHg 94%
    01:00 +11°C° 0.1 mm 0 m/s 574 mmHg 95%
    02:00 +10°C° 0 mm 0 m/s 574 mmHg 95%
    03:00 +10°C° 0 mm 0 m/s 573 mmHg 95%
    04:00 +10°C° 0 mm 0 m/s 573 mmHg 95%
    05:00 +11°C° 0 mm 0 m/s 573 mmHg 93%
    06:00 +11°C° 0 mm 0 m/s 574 mmHg 91%
    07:00 +11°C° 0 mm 0 m/s 574 mmHg 89%
    08:00 +14°C° 0 mm 0 m/s 576 mmHg 78%
    09:00 +18°C° 0 mm 1 m/s 577 mmHg 68%
    10:00 +20°C° 0 mm 1 m/s 578 mmHg 58%
    11:00 +21°C° 0.1 mm 1 m/s 578 mmHg 55%
    12:00 +22°C° 0.1 mm 1 m/s 577 mmHg 53%
    13:00 +21°C° 0.1 mm 2 m/s 577 mmHg 51%
    14:00 +20°C° 0.2 mm 2 m/s 576 mmHg 54%
    15:00 +20°C° 0.2 mm 2 m/s 575 mmHg 57%
    16:00 +19°C° 0.2 mm 2 m/s 574 mmHg 59%
    17:00 +18°C° 0.2 mm 1 m/s 574 mmHg 69%
    18:00 +15°C° 0.2 mm 1 m/s 573 mmHg 79%
    19:00 +12°C° 0.2 mm 0 m/s 573 mmHg 89%
    20:00 +13°C° 0 mm 1 m/s 573 mmHg 90%
    21:00 +13°C° 0 mm 1 m/s 574 mmHg 92%
    22:00 +12°C° 0 mm 1 m/s 574 mmHg 94%
    23:00 +12°C° 0 mm 1 m/s 574 mmHg 94%

    Poimâine, 22 Mai, Miercuri

    Timp Temperatura Precipitaţii Vânt Presiune Umiditate
    00:00 +12°C° 0 mm 1 m/s 574 mmHg 94%
    01:00 +12°C° 0 mm 1 m/s 574 mmHg 94%
    02:00 +12°C° 0.1 mm 1 m/s 574 mmHg 93%
    03:00 +12°C° 0.1 mm 1 m/s 573 mmHg 92%
    04:00 +12°C° 0.1 mm 1 m/s 573 mmHg 91%
    05:00 +12°C° 0.1 mm 1 m/s 574 mmHg 89%
    06:00 +12°C° 0.1 mm 1 m/s 574 mmHg 86%
    07:00 +12°C° 0.1 mm 1 m/s 575 mmHg 84%
    08:00 +15°C° 0.1 mm 1 m/s 576 mmHg 75%
    09:00 +18°C° 0.1 mm 1 m/s 577 mmHg 67%
    10:00 +19°C° 0.1 mm 2 m/s 579 mmHg 58%
    11:00 +20°C° 0.1 mm 2 m/s 578 mmHg 56%
    12:00 +20°C° 0.1 mm 2 m/s 578 mmHg 54%
    13:00 +21°C° 0.1 mm 2 m/s 578 mmHg 51%
    14:00 +21°C° 0.2 mm 2 m/s 577 mmHg 53%
    15:00 +20°C° 0.2 mm 2 m/s 576 mmHg 55%
    16:00 +20°C° 0.2 mm 2 m/s 575 mmHg 58%
    17:00 +18°C° 0.2 mm 2 m/s 575 mmHg 68%
    18:00 +16°C° 0.2 mm 1 m/s 574 mmHg 78%
    19:00 +14°C° 0.2 mm 1 m/s 574 mmHg 88%
    20:00 +13°C° 0 mm 1 m/s 574 mmHg 89%
    21:00 +13°C° 0 mm 1 m/s 574 mmHg 90%
    22:00 +13°C° 0 mm 1 m/s 575 mmHg 90%
    23:00 +12°C° 0 mm 1 m/s 574 mmHg 90%

    23 Mai, Joi

    Timp Temperatura Precipitaţii Vânt Presiune Umiditate
    00:00 +12°C° 0 mm 1 m/s 574 mmHg 90%
    01:00 +12°C° 0 mm 1 m/s 574 mmHg 90%
    02:00 +12°C° 0.1 mm 1 m/s 574 mmHg 90%
    03:00 +12°C° 0.1 mm 1 m/s 573 mmHg 89%
    04:00 +12°C° 0.1 mm 1 m/s 573 mmHg 88%
    05:00 +12°C° 0.1 mm 1 m/s 574 mmHg 87%
    06:00 +12°C° 0.1 mm 1 m/s 574 mmHg 85%
    07:00 +12°C° 0.1 mm 0 m/s 575 mmHg 83%
    08:00 +15°C° 0.1 mm 1 m/s 576 mmHg 75%
    09:00 +19°C° 0.1 mm 1 m/s 578 mmHg 66%
    10:00 +20°C° 0.1 mm 2 m/s 579 mmHg 57%
    11:00 +20°C° 0.5 mm 2 m/s 578 mmHg 58%
    12:00 +21°C° 0.5 mm 1 m/s 577 mmHg 60%
    13:00 +21°C° 0.5 mm 1 m/s 576 mmHg 61%
    14:00 +19°C° 0.5 mm 2 m/s 575 mmHg 63%
    15:00 +19°C° 0.5 mm 2 m/s 575 mmHg 64%
    16:00 +19°C° 0.5 mm 2 m/s 574 mmHg 66%
    17:00 +18°C° 0.8 mm 1 m/s 574 mmHg 74%
    18:00 +15°C° 0.8 mm 1 m/s 574 mmHg 83%
    19:00 +14°C° 0.8 mm 1 m/s 573 mmHg 92%
    20:00 +13°C° 0.5 mm 1 m/s 574 mmHg 93%
    21:00 +13°C° 0.5 mm 1 m/s 574 mmHg 94%
    22:00 +13°C° 0.5 mm 1 m/s 574 mmHg 95%
    23:00 +13°C° 0.3 mm 1 m/s 574 mmHg 95%

    24 Mai, Vineri

    Timp Temperatura Precipitaţii Vânt Presiune Umiditate
    00:00 +13°C° 0.3 mm 1 m/s 574 mmHg 94%
    01:00 +13°C° 0.3 mm 1 m/s 574 mmHg 94%
    02:00 +12°C° 0.4 mm 1 m/s 574 mmHg 93%
    03:00 +12°C° 0.4 mm 1 m/s 573 mmHg 92%
    04:00 +12°C° 0.4 mm 1 m/s 573 mmHg 91%
    05:00 +12°C° 0.6 mm 1 m/s 574 mmHg 91%
    06:00 +13°C° 0.6 mm 1 m/s 574 mmHg 91%
    07:00 +13°C° 0.6 mm 1 m/s 575 mmHg 90%
    08:00 +14°C° 0.6 mm 1 m/s 575 mmHg 86%
    09:00 +15°C° 0.6 mm 1 m/s 576 mmHg 82%
    10:00 +16°C° 0.6 mm 1 m/s 577 mmHg 78%
    11:00 +16°C° 0.8 mm 1 m/s 576 mmHg 78%
    12:00 +16°C° 0.8 mm 1 m/s 576 mmHg 78%
    13:00 +18°C° 0.8 mm 1 m/s 575 mmHg 78%
    14:00 +18°C° 0.5 mm 1 m/s 575 mmHg 78%
    15:00 +18°C° 0.5 mm 1 m/s 574 mmHg 77%
    16:00 +18°C° 0.5 mm 1 m/s 574 mmHg 77%
    17:00 +16°C° 0.4 mm 1 m/s 574 mmHg 82%
    18:00 +14°C° 0.4 mm 1 m/s 573 mmHg 88%
    19:00 +13°C° 0.4 mm 1 m/s 573 mmHg 93%
    20:00 +13°C° 0.5 mm 1 m/s 574 mmHg 94%
    21:00 +13°C° 0.5 mm 1 m/s 574 mmHg 94%
    22:00 +13°C° 0.5 mm 1 m/s 574 mmHg 94%
    23:00 +13°C° 0.8 mm 1 m/s 574 mmHg 94%

    25 Mai, Sâmbătă

    Timp Temperatura Precipitaţii Vânt Presiune Umiditate
    00:00 +12°C° 0.8 mm 0 m/s 574 mmHg 94%
    01:00 +12°C° 0.8 mm 0 m/s 574 mmHg 94%
    02:00 +11°C° 0.9 mm 0 m/s 574 mmHg 94%
    03:00 +11°C° 0.9 mm 0 m/s 573 mmHg 94%
    04:00 +11°C° 0.9 mm 0 m/s 573 mmHg 95%
    05:00 +11°C° 0.9 mm 0 m/s 574 mmHg 95%
    06:00 +11°C° 0.9 mm 0 m/s 574 mmHg 94%
    07:00 +11°C° 0.9 mm 0 m/s 574 mmHg 94%
    08:00 +12°C° 0.9 mm 0 m/s 574 mmHg 93%
    09:00 +12°C° 0.9 mm 0 m/s 575 mmHg 92%
    10:00 +13°C° 0.9 mm 1 m/s 575 mmHg 90%
    11:00 +13°C° 0.6 mm 0 m/s 574 mmHg 89%
    12:00 +13°C° 0.6 mm 0 m/s 574 mmHg 87%
    13:00 +13°C° 0.6 mm 0 m/s 574 mmHg 85%
    14:00 +16°C° 0.2 mm 1 m/s 574 mmHg 78%
    15:00 +18°C° 0.2 mm 1 m/s 574 mmHg 71%
    16:00 +19°C° 0.2 mm 1 m/s 574 mmHg 64%
    17:00 +18°C° 0.2 mm 1 m/s 574 mmHg 72%
    18:00 +14°C° 0.2 mm 0 m/s 574 mmHg 81%
    19:00 +12°C° 0.2 mm 0 m/s 573 mmHg 89%
    20:00 +12°C° 0.8 mm 0 m/s 574 mmHg 90%
    21:00 +12°C° 0.8 mm 0 m/s 574 mmHg 91%
    22:00 +12°C° 0.8 mm 0 m/s 574 mmHg 92%
    23:00 +12°C° 1.2 mm 0 m/s 574 mmHg 93%
    Arată mai mult